Las Vegas, NV

6:25 AM PST on February 12, 2016 (GMT -0800)
McCarran International

Weather History for KLAS - August, 2014

Change the Weather History Date:

Sunday, August 10, 2014

  Actual Average Record
Temperature  
Mean Temperature 92 °F 92 °F  
Max Temperature 100 °F 103 °F 115 °F (1940)
Min Temperature 84 °F 80 °F 60 °F (1937)
Degree Days  
Heating Degree Days 0 0  
Month to date heating degree days 0 0  
Since 1 June heating degree days 0 1  
Since 1 July heating degree days 0 0  
Cooling Degree Days 27 27  
Month to date cooling degree days 231 271  
Year to date cooling degree days 2528 2325  
Since 1 June cooling degree days 1870 1775  
Growing Degree Days 42 (Base 50)    
Moisture  
Dew Point 49 °F    
Average Humidity 24    
Maximum Humidity 31    
Minimum Humidity 17    
Precipitation  
Precipitation 0.00 in 0.01 in 0.74 in (1991)
Month to date precipitation 0.35 0.12  
Year to date precipitation 0.87 2.60  
Snow  
Snow 0.00 in 0.00 in 0.00 in ()
Month to date snowfall 0.0 0.0  
Since 1 June snowfall 0.0 0.0  
Since 1 July snowfall 0.0 0.0  
Snow Depth 0.00 in    
Sea Level Pressure  
Sea Level Pressure 29.85 in    
Wind  
Wind Speed 6 mph (South)    
Max Wind Speed 14 mph    
Max Gust Speed 19 mph    
Visibility 10 miles    
Events      
T = Trace of Precipitation, MM = Missing Value Source: NWS Daily Summary

Daily Weather History Graph

Daily Weather History Graph

Search for Another Location

Airport or City:

Trip Planner

Search our weather history database for the weather conditions in past years. The results will help you decide how hot, cold, wet, or windy it might be!

Date:

Astronomy

Aug. 10, 2014 Rise Set
Actual Time 5:54 AM PDT 7:36 PM PDT
Civil Twilight 5:27 AM PDT 8:03 PM PDT
Nautical Twilight 4:54 AM PDT 8:37 PM PDT
Astronomical Twilight 4:18 AM PDT 9:12 PM PDT
Moon 7:28 PM PDT (8/10) 5:50 AM PDT (8/10)
Length of Visible Light 14h 36m
Length of Day
13h 41m
Full, 100% of the Moon is Illuminated
Aug 10
Full
Aug 17
Last Quarter
Aug 25
New
Sep 2
First Quarter
Sep 8
Full

Hourly Weather History & Observations

Time (PDT) Temp. Heat Index Dew Point Humidity Pressure Visibility Wind Dir Wind Speed Gust Speed Precip Events Conditions
12:56 AM 89.1 °F - 48.0 °F 24% 29.81 in 10.0 mi South 11.5 mph - N/A   Clear
1:56 AM 87.1 °F - 48.9 °F 27% 29.81 in 10.0 mi SW 6.9 mph - N/A   Partly Cloudy
2:56 AM 86.0 °F - 42.1 °F 21% 29.80 in 10.0 mi SSW 9.2 mph - N/A   Scattered Clouds
3:56 AM 84.9 °F - 39.0 °F 20% 29.82 in 10.0 mi SSW 6.9 mph - N/A   Scattered Clouds
4:56 AM 84.9 °F - 43.0 °F 23% 29.82 in 10.0 mi SSW 9.2 mph - N/A   Mostly Cloudy
5:56 AM 84.9 °F - 45.0 °F 25% 29.84 in 10.0 mi SW 3.5 mph - N/A   Mostly Cloudy
6:56 AM 86.0 °F - 42.1 °F 21% 29.86 in 10.0 mi SSE 3.5 mph - N/A   Scattered Clouds
7:56 AM 84.9 °F - 50.0 °F 30% 29.88 in 10.0 mi South 6.9 mph - N/A   Scattered Clouds
8:56 AM 90.0 °F - 48.9 °F 24% 29.90 in 10.0 mi SSW 3.5 mph - N/A   Mostly Cloudy
9:56 AM 90.0 °F - 52.0 °F 27% 29.91 in 10.0 mi East 4.6 mph - N/A   Mostly Cloudy
10:56 AM 91.0 °F - 52.0 °F 26% 29.93 in 10.0 mi East 11.5 mph 18.4 mph N/A   Mostly Cloudy
11:56 AM 91.9 °F 89.5 °F 54.0 °F 27% 29.92 in 10.0 mi Variable 4.6 mph - N/A   Scattered Clouds
12:56 PM 96.1 °F - 52.0 °F 22% 29.90 in 10.0 mi Variable 5.8 mph - N/A   Scattered Clouds
1:56 PM 97.0 °F - 51.1 °F 21% 29.88 in 10.0 mi ESE 5.8 mph - N/A   Scattered Clouds
2:56 PM 97.0 °F - 50.0 °F 20% 29.84 in 10.0 mi Variable 5.8 mph - N/A   Scattered Clouds
3:56 PM 100.0 °F - 48.9 °F 18% 29.82 in 10.0 mi ESE 5.8 mph - N/A   Scattered Clouds
4:56 PM 97.0 °F - 48.9 °F 19% 29.80 in 10.0 mi South 4.6 mph - N/A   Scattered Clouds
5:56 PM 97.0 °F - 48.9 °F 19% 29.79 in 10.0 mi East 10.4 mph - N/A   Scattered Clouds
6:56 PM 96.1 °F - 48.0 °F 19% 29.79 in 10.0 mi NE 6.9 mph - N/A   Mostly Cloudy
7:56 PM 95.0 °F - 48.9 °F 21% 29.81 in 10.0 mi Variable 4.6 mph - N/A   Mostly Cloudy
8:56 PM 93.0 °F - 50.0 °F 23% 29.83 in 10.0 mi NW 6.9 mph - N/A   Scattered Clouds
9:56 PM 91.9 °F - 52.0 °F 26% 29.84 in 10.0 mi West 8.1 mph - N/A   Mostly Cloudy
10:56 PM 93.0 °F - 51.1 °F 24% 29.86 in 10.0 mi NE 3.5 mph - N/A   Mostly Cloudy
11:56 PM 91.0 °F - 52.0 °F 26% 29.84 in 10.0 mi West 8.1 mph - N/A   Mostly Cloudy